Location: Passau
(48.5830°N, 13.4830°E)
Time: 19:58:55
(UTC+02:00)

S-56A Canister/Altair - Pass Details

Date: 23 May 2024
Orbit: 637 x 2489 km, 38.9° (Epoch: 15 June)

Event Time Altitude Azimuth Distance (km) Brightness Sun altitude
Rises 08:38:54 0° 247° (WSW) 5,694 11.5 31.1°
Reaches altitude 10° 08:43:11 10° 242° (WSW) 4,446 11.1 31.8°
Maximum altitude 08:53:49 45° 176° (S) 1,978 10.1 33.6°
Drops below altitude 10° 09:01:03 10° 107° (ESE) 3,058 12.0 34.8°
Sets 09:03:29 0° 100° (E) 3,808 12.1 35.2°
